星链-35953(STARLINK-35953)

导读

STARLINK-35953是美国SpaceX公司星链计划的第二代低轨互联网通信卫星,于2025年11月23日发射入轨,属于星链星座规模化组网的组成部分。它依托星链成熟技术方案,搭载相控阵天线与激光星间链路,可为全球用户提供高速低延迟宽带服务,进一步扩充了星座覆盖容量,助力星链实现全球全域互联,尤其增强中高纬度地区的网络覆盖与服务稳定性。

基本信息
目录编号:
66637
目录名称:
STARLINK-35953
国际标识:
2025-271W
轨道中心:
EARTH
卫星名称:
星链-35953
卫星全名:
星链-35953(STARLINK-35953)
卫星状态:
在轨 (已飞行202 天)
发射日期:
2025-11-23 UTC
国别 :
美国 (US)
星等 :
--
轨道信息
数据来源 国际轨道数据
星历时间: 2026-06-13T04:09:22+0800
11小时前
查看轨道信息
半长轴: 6840.766km
偏心率: 0.000113
轨道倾角: 53.160°
近地点辐角 83.324°
升交点赤经 55.915°
平近点角 276.789°
近地点: 461.855km
远地点: 463.403km
周期: 93.846分钟
每日圈数: 15.344252
详细信息
固有亮度:
5
最大亮度:
2.5
卫星平台:
Starlink V1.0
覆盖范围:
全球
运营商:
太空探索技术公司
运营商所在国:
美国
制造商(研发单位):
太空探索技术公司
制造商所在国:
美国
使用方式:
暂无
卫星简介
Starlink 计划是 SpaceX 推出的全球卫星互联网项目,通过发射低轨道卫星,为全球尤其是偏远地区提供高速、低延迟的互联网服务。自 2019 年起,Starlink 已部署数千颗卫星,旨在缩小全球数字鸿沟,推动互联网普及。该项目还为军事、航空等行业提供通信支持,带来广泛经济效益。
2D轨道图
3D轨道图
轨道高度分析图
轨道倾角分析图
轨道综合分析图
查看轨道综合分析图